TimeCST,TemperatureF,Dew PointF,Humidity,Sea Level PressureIn,VisibilityMPH,Wind Direction,Wind SpeedMPH,Gust SpeedMPH,PrecipitationIn,Events,Conditions,WindDirDegrees,DateUTC
6:55 AM,28.4,26.6,93,29.74,0.5,North,8.1,-,N/A,Snow,Snow,350,2013-02-27 12:55:00
7:13 AM,28.4,26.6,93,9.71,1.0,NNW,9.2,-,N/A,Snow,Light Snow,340,2013-02-27 13:13:00
7:38 AM,30.2,26.6,86,29.71,2.0,NNW,12.7,-,N/A,Snow,Light Snow,340,2013-02-27 13:38:00
7:55 AM,30.2,26.6,86,29.74,7.0,North,10.4,-,N/A,Snow,Light Snow,350,2013-02-27 13:55:00
8:55 AM,30.2,26.6,86,29.75,10.0,North,15.0,-,N/A,,Overcast,360,2013-02-27 14:55:00
9:34 AM,30.2,26.6,86,29.72,10.0,North,12.7,19.6,N/A,Snow,Light Snow,350,2013-02-27 15:34:00
9:55 AM,30.2,26.6,86,29.75,10.0,North,13.8,-,N/A,Snow,Light Snow,350,2013-02-27 15:55:00
10:55 AM,32.0,26.6,80,29.75,10.0,North,13.8,-,N/A,Snow,Light Snow,350,2013-02-27 16:55:00
11:55 AM,32.0,26.6,80,29.75,10.0,North,11.5,-,N/A,Snow,Light Snow,350,2013-02-27 17:55:00
12:55 PM,32.0,26.6,80,29.75,10.0,North,15.0,20.7,N/A,,Overcast,350,2013-02-27 18:55:00
1:35 PM,33.8,26.6,75,29.75,10.0,NNW,17.3,-,N/A,,Overcast,340,2013-02-27 19:35:00
1:55 PM,32.0,26.6,80,29.75,10.0,NNW,13.8,-,N/A,Snow,Light Snow,340,2013-02-27 19:55:00
2:36 PM,32.0,26.6,80,29.72,3.0,NNW,13.8,-,N/A,Snow,Light Snow,340,2013-02-27 20:36:00
2:55 PM,33.8,30.2,87,29.75,4.0,NNW,17.3,-,N/A,Snow,Light Snow,330,2013-02-27 20:55:00
3:13 PM,32.0,30.2,93,29.73,2.0,NNW,12.7,-,N/A,Snow,Light Snow,340,2013-02-27 21:13:00
3:55 PM,32.0,30.2,93,29.77,2.0,NNW,11.5,-,N/A,Snow,Light Snow,330,2013-02-27 21:55:00
4:03 PM,32.0,30.2,93,29.78,2.0,NNW,12.7,-,N/A,Snow,Light Snow,330,2013-02-27 22:03:00
4:40 PM,32.0,30.2,93,29.75,3.0,NNW,10.4,-,N/A,Snow,Light Snow,330,2013-02-27 22:40:00
4:55 PM,32.0,30.2,93,29.79,7.0,NNW,10.4,-,N/A,Snow,Light Snow,330,2013-02-27 22:55:00
5:55 PM,32.0,30.2,93,29.81,7.0,NNW,13.8,-,N/A,Snow,Light Snow,330,2013-02-27 23:55:00
6:55 PM,32.0,30.2,93,29.83,5.0,NNW,10.4,-,N/A,Snow,Light Snow,340,2013-02-28 00:55:00
7:55 PM,32.0,30.2,93,29.85,5.0,NNW,11.5,-,N/A,Snow,Light Snow,340,2013-02-28 01:55:00
8:55 PM,32.0,28.4,87,29.86,7.0,NNW,16.1,-,N/A,Snow,Light Snow,340,2013-02-28 02:55:00
9:55 PM,32.0,28.4,87,29.87,7.0,NNW,17.3,-,N/A,Snow,Light Snow,340,2013-02-28 03:55:00
10:55 PM,32.0,26.6,80,29.88,10.0,North,16.1,21.9,N/A,Snow,Light Snow,350,2013-02-28 04:55:00
11:55 PM,32.0,26.6,80,29.89,10.0,NNW,10.4,-,N/A,Snow,Light Snow,340,2013-02-28 05:55:00
11:57 PM,32.0,26.6,80,29.89,9.0,NNW,11.5,-,N/A,,Mostly Cloudy,340,2013-02-28 05:57:00